Tracking 30516 objects as of 20-May-2025
HD Live streaming from Space Station
objects crossing your sky now

SOLRAD 7B

Track SOLRAD 7B now!
10-day predictions
SOLRAD 7B is classified as:


NORAD ID: 1291
Int'l Code: 1965-016D
Perigee: 901.5 km
Apogee: 935.8 km
Inclination: 70.1 °
Period: 103.2 minutes
Semi major axis: 7289 km
RCS: 0.5012 m2 (medium)
Launch date: March 9, 1965
Source: United States (US)
Launch site: AIR FORCE WESTERN TEST RANGE (AFWTR)
Your satellite tracking list
Your tracking list is empty




NASA's NSSDC Master Catalog

Two Line Element Set (TLE):
1 01291U 65016D   25140.30455573  .00000028  00000-0  59996-4 0  9997
2 01291  70.0800 351.5009 0023526 276.0234  83.8191 13.94910575 61916
Source of the keplerian elements: AFSPC